Showing default

COSMOS 2448 (GLONASS), 33468

Orbit data source: Space-Track

COSMOS 2448 (GLONASS), 33468 is a Commonwealth of Independent States-origin payload satellite in MEO that was launched on Thu, 25 Dec 2008 UTC via a PROTON-M/DM-2 launch vehicle from the Tyuratam Missile And Space Complex (TTMTR). Payload-class satellites include a variety of spacecraft equipped with specific instruments for various scientific and technological missions. These include communications satellites like Starlink; space stations such as the ISS; scientific satellites like the Hubble; Earth observation satellites from companies like Planet Labs, Umbra, and HawkEye 360; GPS; miniature CubeSats for education and research; and military/defense satellites.

Loading next visibility...
Identifier
33468, 2008-067C
Orbit
MEO
Last TLE update
1 day ago
Origin
Manufacturer
Resehetnev ISS
Mission
Non-operational Defense Navigation
Bus & Motor
URAGAN, Unknown motor
Mass
1,450 kg wet, ~1,200 kg dry
Launch date (UTC)
2008-12-25 (17 years ago)
Launch vehicle
PROTON-M/DM-2
Launch site
Tyuratam Missile And Space Complex (TTMTR)
Object type
Payload
Rocket body
Debris
Shape & HBR
Cyl + 1 Ant + 2 Pan, 7.8 m
Radar Cross Section
8.467 m², Large (>1 m²)

Expand to show TLE details & history

TLE from 1 day ago
0 COSMOS 2448 (GLONASS)
1 33468U 08067C   25181.16868197 -.00000033  00000-0  00000-0 0  9995
2 33468  64.6025  81.4029 0001818 246.1921 113.8320  2.13116518128531
Epoch: 2025-06-30T04:02Z
TLE epoch observation values (Epoch: 2025-06-30T04:02:54.122Z)
Latitude
-0.00006°
Longitude
102.20823°
Altitude
19,131.16 km
Speed
3.953 km/s
True Right ascension
05h 25m 39s
True Declination
0° 00' 00"
Sunlit
Object was in daylight at epoch
Visualization orbit readout
Latitude
-11.53435°
Longitude
-72.28727°
Altitude
19,128.826 km
Speed
3.953 km/s
Apparent Right ascension
17h 16m 04s
Apparent Declination
-23° 18' 44"
Sunlit
Object is in daylight
Visualization observer readout
Local Sidereal Time
20:14:10
Azimuth
221.666° SW
Elevation
14.373°
Doppler factor
1
Orbital elements
Apogee altitude
19,132.995 km
Perigee altitude
19,123.721 km
Semi-major axis
25,506.495 km
Eccentricity
0.00018
Inclination
64.6025°
RAAN
81.4029°
Arg. of periapsis
246.1921°
True anomaly
Unknown
Mean anomaly
113.832°
Eccentric anomaly
Unknown
Mean motion
0.5328 °/min
Orbital period
675.67 mins
BSTAR
0
Loading maneuver chart data...
Loading SW <> Apogee altitude chart data...
Loading historical data...
Loading historical data...
Loading historical data...
Loading historical data...
Loading historical data...
Loading historical data...
Loading historical data...

COSMOS 2448 (GLONASS) Visibility forecast

Observer location: undefined°, undefined°

Span
Click to sort rows by Start time (UTC) header in descending order
Start Az.
Max El. time (UTC)
Max El. Az.
Max El.
End time (UTC)
End Az.
9 mins2025-07-01 08:36:02.119Z221.648° SW2025-07-01 08:36:02.119Z221.648° SW13.927°2025-07-01 08:45:02.119Z219.257° SW
176 mins2025-07-01 13:55:02.119Z109.126° ESE2025-07-01 15:24:02.119Z63.445° ENE27.966°2025-07-01 16:51:02.119Z25.152° NE
272 mins2025-07-02 03:01:02.119Z318.853° NNW2025-07-02 05:22:02.119Z268.544° W43.691°2025-07-02 07:33:02.119Z195.518° SSW
|